Location: Cheching
(60.0667°N, 164.2167°W)
Time: 21:18:22
(UTC+00:00)

NOAA 15 - Pass Details

Date: 25 January 2021
Orbit: 798 x 812 km, 98.7° (Epoch: 07 March)

Event Time Altitude Azimuth Distance (km) Brightness Sun altitude
Rises 07:22:39 0° 222° (SW) 3,309 8.1 -32.7°
Reaches altitude 10° 07:26:08 10° 247° (WSW) 2,387 7.5 -33.1°
Maximum altitude 07:28:57 14° 279° (W) 2,096 7.5 -33.4°
Drops below altitude 10° 07:31:48 10° 312° (NW) 2,401 7.8 -33.8°
Sets 07:35:20 0° 337° (NNW) 3,342 8.4 -34.2°
